千帆星座-76 (QIANFAN-76)

导读

QIANFAN-76 是中国“千帆星座”计划中的一颗低轨卫星,主要用于提供全球卫星互联网服务。该卫星具备高速数据传输和广域覆盖能力,支持多种通信应用场景,如远程教育、应急通信和物联网连接。作为星座组网的一部分,QIANFAN-76 将与其他卫星协同工作,构建稳定、高效的天地一体化网络,助力中国在商业航天和卫星通信领域的快速发展。

基本信息
目录编号:
63162
目录名称:
QIANFAN-76
国际标识:
2025-046D
轨道中心:
EARTH
卫星名称:
千帆星座-76
卫星全名:
千帆星座-76 (QIANFAN-76)
卫星状态:
在轨 (已飞行503 天)
发射日期:
2025-03-11 UTC
国别 :
中国 (CN)
星等 :
--
轨道信息
数据来源 国际轨道数据 AOE轨道数据
星历时间 2026-07-27T21:49:27+0800
9小时前
查看轨道信息
2026-07-26T09:00:00+0800
1天前
查看轨道信息
半长轴 7446.656km 7446.66km
偏心率 0.0013948 0.0013611
轨道倾角 88.972° 88.973°
近地点辐角 182.150° 186.656°
升交点赤经 296.594° 296.754°
平近点角 177.960° 275.366°
近地点 1058.132km 1058.387km
远地点 1078.906km 1078.659km
周期 106.586分钟 106.586分钟
每日圈数 13.510172 13.51016
详细信息
卫星平台:
76
覆盖范围:
全球
运营商:
上海垣信卫星科技有限公司
运营商所在国:
中国
使用方式:
暂无
卫星简介
千帆星座,也被称为“G60星链”计划,是中国版“星链”的重要组成部分,旨在打造一个由1.4万多颗低轨宽频多媒体卫星构成的庞大星座。千帆星座计划由上海垣信卫星科技有限公司负责实施,于2023年启动建设。该项目是我国第二个低轨卫星大星座,旨在通过构建庞大的卫星网络,为全球用户提供高质量的通信和宽带互联网服务。
2D轨道图
3D轨道图
轨道高度分析图
轨道倾角分析图
轨道综合分析图
查看轨道综合分析图